Stove Prairie

Current Conditions

Time01/27/2020 08:30 AM MST
Location40.619167,-105.356944
Elevation7,349 FT
Air Temp30°F
Surface Temp28°F
Dew Point Temp18°F
Relative Humidity61%
Visibility6,562 FT
Pressure771 MB
PrecipitationNone

Click a photo to enlarge.

250°1 mph
Wind from @ 1 mph

Past 24 Hours

All Data

Previous 24h observations for Stove Prairie
Time Air Temp
(°F)
Surface
(°F)
Dew Point
(°F)
Relative
Humidity
Precip. Wind Direction Wind Speed (mph) Visibility (ft) Pressure
(mb)
08:30 AM30281861NoneWSW16,562771
08:15 AM29271761NoneE26,562771
08:00 AM29271762NoneN06,562771
07:45 AM29281760NoneN06,562771
07:30 AM27261766NoneNNW16,562771
07:15 AM27261767NoneNNW36,562771
07:00 AM26261869NoneN46,562771
06:45 AM27261869NoneN26,562771
06:30 AM27261868NoneNNW36,562771
06:15 AM26251871NoneNNW36,562771
06:00 AM27241768NoneN36,562771
05:45 AM27241868NoneN26,562771
05:30 AM30251860NoneNNE26,562771
05:15 AM29271862NoneNE16,562771
05:00 AM28251865NoneNE26,562771
04:45 AM29251863NoneNNE26,562771
04:30 AM28251864NoneN06,562771
04:15 AM30241861NoneESE26,562771
04:00 AM29241863NoneWSW26,562771
03:45 AM32251857NoneS26,562771
03:30 AM32261956NoneESE36,562771
03:15 AM31261960NoneESE26,562771
03:00 AM31261959NoneN06,562771
02:45 AM32241856NoneN06,562771
02:30 AM31251757NoneE26,562772
02:15 AM30261860NoneN06,562772
02:00 AM30241860NoneNE26,562772
01:45 AM30241860NoneNNE16,562772
01:30 AM31251960NoneNNW26,562772
01:15 AM31271859NoneN06,562772
01:00 AM30251962NoneNNW36,562772
12:45 AM29241964NoneNNW26,562772
12:30 AM31231961NoneNNW36,562772
12:15 AM33271956NoneNNW36,562772
12:00 AM32271958NoneNNW26,562773
11:45 PM31281858NoneN06,562773
11:30 PM31251857NoneNNE26,562773
11:15 PM32281857NoneSSE26,562773
11:00 PM31261757NoneENE26,562773
10:45 PM31251755NoneN06,562772
10:30 PM32251753NoneNNW26,562772
10:15 PM31271754NoneN26,562773
10:00 PM32261752NoneN16,562773
09:45 PM32291752NoneN06,562773
09:30 PM32281754NoneN06,562773
09:15 PM32281754NoneESE26,562773
09:00 PM32271753NoneN06,562773
08:45 PM33271752NoneN06,562773
08:30 PM35311748NoneSW26,562773
08:15 PM34291750NoneN06,562773
08:00 PM34291751NoneNE26,562773
07:45 PM34291749NoneNW26,562773
07:30 PM34281749NoneN06,562773
07:15 PM35291747NoneS86,562773
03:30 PM43392039NoneNNW66,562773
03:15 PM43401938NoneNNW76,562773
03:00 PM44412038NoneNNW46,562773
02:45 PM44441937NoneNNW66,562773
02:30 PM44461836NoneN86,562773
02:15 PM44491935NoneNNW76,562773
02:00 PM45491834NoneNW56,562773
01:45 PM44511733NoneNNW36,562773
01:30 PM44491531NoneN56,562773
01:15 PM44511429NoneNNW86,562773
01:00 PM44531228NoneNNW96,562773
12:45 PM42511330NoneNW46,562774
12:30 PM38461540NoneS116,562774
12:15 PM38461640NoneSSW56,562774
12:00 PM38441743NoneS66,562774
11:45 AM37491743NoneS86,562774
11:30 AM36471645NoneS126,562774
11:15 AM35401646NoneS96,562774
11:00 AM40381637NoneSSE46,562775
10:45 AM4142624NoneNW86,562775
10:30 AM37421540NoneSSE46,562775
10:15 AM37391643NoneS36,562775
10:00 AM35361646NoneS116,562775
09:45 AM34341648NoneSSE66,562775
09:30 AM34321748NoneS66,562775
09:15 AM32301650NoneS106,562775
09:00 AM32271651NoneS76,562775

Red Feather Lakes

Current Conditions

Time01/27/2020 08:30 AM MST
Location40.790278,-105.574167
Elevation8,238 FT
Air Temp31°F
Surface Temp26°F
Dew Point Temp17°F
Relative Humidity57%
Visibility6,562 FT
Pressure745 MB
PrecipitationNone

Click a photo to enlarge.

259°4 mph
Wind from @ 4 mph

Past 24 Hours

All Data

Previous 24h observations for Red Feather Lakes
Time Air Temp
(°F)
Surface
(°F)
Dew Point
(°F)
Relative
Humidity
Precip. Wind Direction Wind Speed (mph) Visibility (ft) Pressure
(mb)
08:30 AM31261757NoneW46,562745
08:15 AM31251757NoneNW26,562745
08:00 AM31241756NoneSSW36,562745
07:45 AM32251854NoneWNW56,562745
07:30 AM31241858NoneWNW66,562745
07:15 AM31241758NoneWSW96,562745
07:00 AM29231761NoneWSW86,562745
06:45 AM29241760NoneW66,562745
06:30 AM28231762NoneW86,562745
06:15 AM29221761NoneW96,562745
06:00 AM31251857NoneWNW56,562745
05:45 AM31241858NoneWSW56,562745
05:30 AM31231859NoneW46,562745
05:15 AM34221852NoneS26,562745
05:00 AM32251956NoneNE46,562745
04:45 AM32241957NoneENE46,562745
04:30 AM30221860NoneNNE46,562745
04:15 AM32261957NoneSSW26,562745
04:00 AM32251958NoneE46,562745
03:45 AM33231956NoneWSW36,562745
03:30 AM34261954NoneN06,562745
03:15 AM34241954NoneSSW26,562745
03:00 AM35241951NoneSW86,562745
02:45 AM35251951NoneWNW126,562745
02:30 AM33261954NoneW116,562746
02:15 AM35251953NoneSSW36,562746
02:00 AM35262053NoneS86,562746
01:45 AM35222054NoneWSW26,562746
01:30 AM36252053NoneW56,562746
01:15 AM34271954NoneNNW96,562746
01:00 AM36262053NoneWSW96,562746
12:45 AM34232056NoneE66,562746
12:30 AM36262053NoneW136,562746
12:15 AM36272053NoneWSW136,562746
12:00 AM36262154NoneNNW76,562747
11:45 PM36272154NoneW66,562747
11:30 PM36272054NoneN36,562747
11:15 PM35272055NoneNNW46,562747
11:00 PM33262058NoneW46,562747
10:45 PM33252059NoneWSW46,562747
10:30 PM33262058NoneE116,562746
10:15 PM33242058NoneENE36,562747
10:00 PM33252058NoneE26,562747
09:45 PM34252056NoneS66,562747
09:30 PM34262055NoneSSE86,562747
09:15 PM34261955NoneSSE76,562747
09:00 PM33281956NoneSSE76,562747
08:45 PM33261956NoneSSE66,562747
08:30 PM33271957NoneS86,562747
08:15 PM33272057NoneSSE56,562747
08:00 PM34251955NoneW56,562747
07:45 PM35292054NoneSSW96,562747
07:30 PM35292055NoneSSW116,562747
07:15 PM33292057NoneESE66,562747
03:30 PM37471948NoneW186,562747
03:15 PM37471948NoneW206,562747
03:00 PM36471948NoneW256,562747
02:45 PM36481848NoneW236,562747
02:30 PM36481847NoneW266,562747
02:15 PM36481847NoneW266,562747
02:00 PM37491745NoneW256,562747
01:45 PM37481744NoneW266,562747
01:30 PM37441642NoneW206,562747
01:15 PM36381541NoneW256,562747
01:00 PM37411439NoneWNW186,562748
12:45 PM37471337NoneW176,562748
12:30 PM36461237NoneWNW216,562748
12:15 PM37521336NoneW246,562748
12:00 PM37491237NoneWNW266,562748
11:45 AM36471135NoneW236,562748
11:30 AM36451136NoneW146,562748
11:15 AM35371137NoneW196,562748
11:00 AM35381137NoneW216,562748
10:45 AM35431138NoneW296,562748
10:30 AM34411138NoneW246,562749
10:15 AM34391138NoneW186,562748
10:00 AM33351139NoneW216,562748
09:45 AM33341139NoneNW126,562748
09:30 AM33311140NoneW186,562748
09:15 AM32281142NoneWNW226,562748
09:00 AM32251141NoneW156,562748

Pinewood Reservoir

Current Conditions

Time01/27/2020 08:30 AM MST
Location40.3647,-105.2867
Elevation6,580 FT
Air Temp31°F
Surface Temp30°F
Dew Point Temp19°F
Relative Humidity60%
Visibility6,562 FT
Pressure788 MB
PrecipitationNone
Level of Grip82.0
State of Surface4.0

Click a photo to enlarge.

218°3 mph
Wind from @ 3 mph

Past 24 Hours

All Data

Previous 24h observations for Pinewood Reservoir
Time Air Temp
(°F)
Surface
(°F)
Dew Point
(°F)
Relative
Humidity
Precip. Wind Direction Wind Speed (mph) Visibility (ft) Pressure
(mb)
Level of GripState Surface
08:30 AM31301960NoneSW36,562788824
08:15 AM31311858NoneSSE26,562787824
08:00 AM31301859NoneSW46,562787824
07:45 AM31301858NoneWSW36,562787824
07:30 AM31291857NoneSSE36,562787824
07:15 AM32301856NoneNNW26,562788824
07:00 AM32311856NoneN26,562787824
06:45 AM31291857NoneWSW26,562787824
06:30 AM31291857NoneSSW36,562787824
06:15 AM31281858NoneS46,562787824
06:00 AM32291755NoneSSW26,562787824
05:45 AM32301855NoneNNE46,562787824
05:30 AM32301856NoneNNE56,562787824
05:15 AM31311757NoneESE36,562787824
05:00 AM29301760NoneSSW36,562787824
04:45 AM28281763NoneSSW56,562787824
04:30 AM32281754NoneSSW46,562787824
04:15 AM30291757NoneWNW46,562787824
04:00 AM31291754NoneSW46,562787824
03:45 AM31291655NoneWSW26,562787824
03:30 AM30291756NoneW36,562787824
03:15 AM32291753NoneW26,562788824
03:00 AM31291755NoneN36,562788824
02:45 AM31291755NoneNNE86,562788824
02:30 AM32291755NoneNE76,562788824
02:15 AM33301751NoneS36,562788824
02:00 AM31291754NoneN06,562788824
01:45 AM32281651NoneWSW26,562788824
01:30 AM33301650NoneENE16,562788824
01:15 AM33301650NoneWNW26,562788824
01:00 AM33291752NoneENE46,562788824
12:45 AM32291753NoneENE66,562788824
12:30 AM33301751NoneNE66,562788824
12:15 AM34311647NoneSE26,562789824
12:00 AM34301648NoneSW46,562789824
11:45 PM34291647NoneWSW46,562789824
11:30 PM35291646NoneWSW56,562789824
11:15 PM35321645NoneWSW36,562789824
11:00 PM33311648NoneWSW56,562789824
10:45 PM33321549NoneWSW56,562789824
10:30 PM35321645NoneSW26,562789824
10:15 PM33311649NoneSW46,562789824
10:00 PM33291648NoneSW46,562789824
09:45 PM36341542NoneSE16,562789824
09:30 PM36331542NoneSE26,562789824
09:15 PM36311644NoneWSW46,562789824
09:00 PM37341643NoneNE16,562789824
08:45 PM35331646NoneWSW36,562790824
08:30 PM35351647NoneN06,562789824
08:15 PM37331642NoneWSW56,562789824
08:00 PM33341648NoneW36,562790824
07:45 PM37351642NoneNE46,562790824
07:30 PM34341748NoneWSW36,562790824
07:15 PM35341647NoneSSW36,562790824
03:30 PM40451739NoneE36,562789824
03:15 PM41471738NoneSE86,562789824
03:00 PM41491738NoneENE66,562789824
02:45 PM41501738NoneNE66,562789824
02:30 PM41491737NoneE46,562789824
02:15 PM41511737NoneSE76,562789824
02:00 PM42531838NoneE86,562789824
01:45 PM42571735NoneESE86,562789824
01:30 PM42571736NoneE96,562790824
01:15 PM40571739NoneE66,562790824
01:00 PM40561738NoneESE126,562790824
12:45 PM41561637NoneSE126,562790824
12:30 PM39541740NoneESE96,562790824
12:15 PM39551741NoneESE86,562790824
12:00 PM38501641NoneSE96,562791824
11:45 AM38501742NoneSSE66,562791824
11:30 AM38471742NoneSSE76,562791824
11:15 AM39521740NoneESE106,562791824
11:00 AM39521741NoneENE56,562791824
10:46 AM39501741NoneSE36,562791824
10:30 AM37471643NoneE56,562791824
10:15 AM37461744NoneSSE56,562792824
10:00 AM37441744NoneSSE86,562791824
09:45 AM37411744NoneS36,562791824
09:30 AM37391744NoneESE56,562791824
09:15 AM36371645NoneS26,562791824
09:00 AM33341649NoneSSW36,562791824

Masonville

Current Conditions

Time01/27/2020 08:30 AM MST
Location40.4875,-105.2108
Elevation5,387 FT
Air Temp36°F
Surface Temp35°F
Dew Point Temp21°F
Relative Humidity55%
Visibility6,562 FT
Pressure830 MB
PrecipitationNone

Click a photo to enlarge.

0 mph
Wind from @ 0 mph

Past 24 Hours

All Data

Previous 24h observations for Masonville
Time Air Temp
(°F)
Surface
(°F)
Dew Point
(°F)
Relative
Humidity
Precip. Wind Direction Wind Speed (mph) Visibility (ft) Pressure
(mb)
08:30 AM36352155NoneN06,562830
08:15 AM32353255NNW10830
07:45 AM34332056NoneN06,562830
07:30 AM35332055NoneN06,562830
07:00 AM32343256NE10830
06:45 AM34342056NoneN06,562830
06:30 AM34332056NoneNW26,562830
06:15 AM34332057NoneE36,562830
06:00 AM34332057NoneNW36,562829
05:45 AM33332057NoneN00830
05:30 AM323232N00829
05:15 AM32321959NoneNNW20830
05:00 AM33331957NoneNNW16,562830
04:45 AM33332057NoneNNE26,562830
04:30 AM32331960NoneNE26,562830
04:15 AM30321962NoneENE16,562830
04:00 AM32321959NoneW16,562830
03:45 AM31321959NoneESE36,562830
03:30 AM31321960NoneNNW36,562830
03:15 AM323232N00830
03:00 AM32321959NoneWNW16,562830
02:45 AM33321957NoneN06,562830
02:30 AM33331956NoneNNW26,562831
02:15 AM33321955NoneSE26,562831
02:00 AM33331955NoneS26,562831
01:45 AM32311856NoneSE36,562830
01:30 AM37341947NoneN56,562830
01:15 AM38341945NoneNNW76,562830
01:00 AM38341946NoneNNW66,562830
12:45 AM36331950NoneNW26,562830
12:30 AM35351952NoneN06,562831
12:15 AM35341950NoneESE26,562831
12:00 AM37341947NoneE26,562831
11:45 PM37351948NoneNW66,562831
11:30 PM37341949NoneNNW46,562831
11:15 PM37341949NoneNNW46,562831
11:00 PM37351948NoneNNW46,562831
10:45 PM37351949NoneNNW46,562831
10:30 PM37351949NoneNNW66,562831
10:15 PM37351949NoneNNW46,562831
10:00 PM37351948NoneNNW46,562831
09:45 PM38361946NoneNW56,562831
09:30 PM38361946NoneNNW46,562831
09:15 PM37371947NoneNNW46,562831
09:00 PM37371947NoneNNW46,562831
08:45 PM35371952NoneE26,562832
08:30 PM35371950NoneN06,562832
08:15 PM36371847NoneNW26,562832
08:00 PM36381849NoneENE36,562832
07:45 PM37381847NoneN06,562832
07:30 PM37381948NoneE26,562832
07:15 PM37381846NoneN26,562832
03:30 PM48521831NoneSE26,562831
03:15 PM48521930NoneESE36,562831
03:00 PM48531931NoneSE36,562831
02:45 PM48541830NoneSE66,562831
02:30 PM49551830NoneSE56,562831
02:15 PM48561931NoneE66,562831
02:00 PM47561931NoneSE66,562831
01:45 PM47561932NoneSE76,562831
01:30 PM47561932NoneSE66,562831
01:15 PM47591932NoneSSE86,562832
01:00 PM48661931NoneSE96,562832
12:45 PM47651932NoneSSE96,562832
12:30 PM46641832NoneSSE96,562832
12:15 PM46631934NoneSE76,562833
12:00 PM46611934NoneSE86,562833
11:30 AM44571936NoneSE86,562833
11:15 AM45591934NoneSSE116,562833
11:00 AM45551935NoneSE76,562834
10:45 AM45541936NoneSE66,562834
10:30 AM44531937NoneSSE56,562834
10:16 AM43501938NoneSE66,562834
10:00 AM43471938NoneSE36,562834
09:45 AM42451940NoneSSE46,562834
09:30 AM41421940NoneSSE26,562834
09:15 AM38402047NoneE26,562834
09:00 AM38362048NoneN06,562834

Time to refresh Minute(s) Second(s)